DW0156 Weather Reports


time (UTC)temp
C
wind
direction
speed
KPH
gust
KPH
rain 1hr
cm
rain 24hr
cm
rain mn
cm
humidity
%
barometer
mb
20260902162632 12 263 3.2 14.5 0.00 0.00 0.00 76 1015.5
20260902162117 12 263 3.2 17.7 0.00 0.00 0.00 77 1015.5
20260902161607 12 263 3.2 17.7 0.00 0.00 0.00 76 1015.5
20260902155831 12 263 8.0 25.7 0.00 0.00 0.00 77 1015.8
20260902154708 12 263 3.2 14.5 0.00 0.00 0.00 78 1015.8
20260902152941 12 263 3.2 19.3 0.00 0.00 0.00 77 1015.6
20260902152448 12 263 4.8 19.3 0.00 0.00 0.00 77 1015.6
20260902151310 12 263 4.8 25.7 0.00 0.00 0.00 77 1015.9
20260902150809 12 263 6.4 25.7 0.00 0.00 0.00 76 1015.9
20260902150253 13 263 11.3 25.7 0.00 0.00 0.00 75 1015.9
20260902145737 13 263 9.7 25.7 0.00 0.00 0.00 74 1015.7
20260902145234 13 263 6.4 17.7 0.00 0.00 0.00 74 1015.7
20260902144741 13 263 4.8 14.5 0.00 0.00 0.00 74 1015.7
20260902144228 13 263 3.2 14.5 0.00 0.00 0.00 75 1015.8
20260902143737 13 263 1.6 14.5 0.00 0.00 0.00 75 1015.8
20260902143243 13 263 1.6 9.7 0.00 0.00 0.00 75 1015.8
20260902142745 13 263 3.2 16.1 0.00 0.00 0.00 75 1015.9
20260902142231 13 263 4.8 16.1 0.00 0.00 0.00 75 1015.9
20260902140545 13 263 4.8 12.9 0.00 0.00 0.00 75 1016.0
20260902140042 13 263 4.8 24.1 0.00 0.00 0.00 75 1016.0
20260902135551 13 263 4.8 24.1 0.00 0.00 0.00 75 1016.2
20260902135046 13 263 6.4 24.1 0.00 0.00 0.00 75 1016.2
20260902134535 13 263 8.0 24.1 0.00 0.00 0.00 75 1016.2
20260902133412 13 263 6.4 16.1 0.00 0.00 0.00 75 1016.2
20260902132920 13 263 4.8 16.1 0.00 0.00 0.00 75 1016.2
20260902132404 13 263 4.8 16.1 0.00 0.00 0.00 74 1016.1
20260902131852 13 263 6.4 16.1 0.00 0.00 0.00 74 1016.1
20260902131359 13 263 6.4 16.1 0.00 0.00 0.00 74 1016.2
20260902130900 13 263 4.8 16.1 0.00 0.00 0.00 73 1016.2
20260902130408 13 263 4.8 19.3 0.00 0.00 0.00 73 1016.2
20260902125905 13 263 4.8 19.3 0.00 0.00 0.00 73 1016.3
20260902124149 13 263 4.8 17.7 0.00 0.00 0.00 72 1016.4
20260902123649 12 263 4.8 17.7 0.00 0.00 0.00 72 1016.4
20260902123151 12 263 8.0 17.7 0.00 0.00 0.00 73 1016.4
20260902122650 12 263 6.4 16.1 0.00 0.00 0.00 74 1016.5
20260902122134 12 263 6.4 14.5 0.00 0.00 0.00 76 1016.5
20260902121616 12 263 6.4 14.5 0.00 0.00 0.00 77 1016.5
20260902121059 12 263 3.2 9.7 0.00 0.00 0.00 78 1016.5
20260902120558 12 263 1.6 8.0 0.00 0.00 0.00 79 1016.5
20260902120049 12 263 1.6 6.4 0.00 0.00 0.00 79 1016.5
20260902115548 12 263 1.6 6.4 0.00 0.00 0.00 79 1016.4
20260902115047 12 263 1.6 8.0 0.00 0.00 0.00 79 1016.4
20260902114531 12 263 0.0 8.0 0.00 0.00 0.00 79 1016.4
20260902114029 12 263 0.0 4.8 0.00 0.00 0.00 79 1016.4
20260902113509 12 263 0.0 4.8 0.00 0.00 0.00 79 1016.4
20260902112329 12 263 1.6 9.7 0.00 0.00 0.00 79 1016.2
20260902111820 12 263 1.6 9.7 0.00 0.00 0.00 79 1016.2
20260902110700 12 263 0.0 6.4 0.00 0.00 0.00 78 1016.2
20260902110140 12 263 0.0 4.8 0.00 0.00 0.00 77 1016.2
20260902105648 12 263 0.0 4.8 0.00 0.00 0.00 76 1016.0
20260902105134 12 263 1.6 9.7 0.00 0.00 0.00 76 1016.0
20260902103358 12 263 8.0 27.4 0.00 0.00 0.00 76 1016.0
20260902102857 12 263 9.7 27.4 0.00 0.00 0.00 76 1015.9
20260902101729 13 263 8.0 27.4 0.00 0.00 0.00 72 1015.9
20260902100620 13 263 4.8 17.7 0.00 0.00 0.00 67 1015.6
20260902100108 13 263 4.8 17.7 0.00 0.00 0.00 67 1015.6
20260902094944 13 263 4.8 16.1 0.00 0.00 0.00 65 1015.4
20260902094453 13 263 3.2 14.5 0.00 0.00 0.00 65 1015.4
20260902093938 13 263 3.2 9.7 0.00 0.00 0.00 65 1015.3
20260902092759 13 263 1.6 11.3 0.00 0.00 0.00 65 1015.0
20260902092250 13 263 1.6 12.9 0.00 0.00 0.00 66 1015.0
20260902091731 13 263 3.2 12.9 0.00 0.00 0.00 65 1015.0
20260902091236 13 263 3.2 16.1 0.00 0.00 0.00 64 1015.1
20260902090731 13 263 3.2 16.1 0.00 0.00 0.00 65 1015.1
20260902090237 13 263 4.8 16.1 0.00 0.00 0.00 65 1015.1
20260902085741 13 263 4.8 16.1 0.00 0.00 0.00 66 1014.9
20260902084620 13 263 4.8 14.5 0.00 0.00 0.00 67 1014.9
20260902082844 13 263 4.8 16.1 0.00 0.00 0.00 66 1014.8
20260902082348 13 263 4.8 16.1 0.00 0.00 0.00 66 1014.8
20260902081849 13 263 4.8 16.1 0.00 0.00 0.00 65 1014.8
20260902080105 14 263 4.8 16.1 0.00 0.00 0.00 66 1014.6
20260902075550 14 263 6.4 17.7 0.00 0.00 0.00 66 1014.7
20260902075054 14 263 6.4 17.7 0.00 0.00 0.00 65 1014.7
20260902074549 14 263 8.0 20.9 0.00 0.00 0.00 65 1014.7
20260902073420 14 263 6.4 20.9 0.00 0.00 0.00 64 1014.6
20260902072919 14 263 6.4 20.9 0.00 0.00 0.00 65 1014.6
20260902071736 14 263 3.2 14.5 0.00 0.00 0.00 65 1014.6
20260902071238 14 263 4.8 14.5 0.00 0.00 0.00 65 1014.8
20260902070720 14 263 3.2 14.5 0.00 0.00 0.00 65 1014.8
20260902070219 15 263 4.8 14.5 0.00 0.00 0.00 64 1014.8
20260902065722 15 263 4.8 14.5 0.00 0.00 0.00 63 1014.7
20260902065211 15 263 4.8 14.5 0.00 0.00 0.00 64 1014.7
20260902064656 15 263 3.2 14.5 0.00 0.03 0.00 63 1014.7
20260902064142 15 263 3.2 12.9 0.00 0.05 0.00 63 1014.8
20260902063034 15 263 3.2 14.5 0.00 0.08 0.00 62 1014.8
20260902062524 15 263 3.2 14.5 0.00 0.10 0.00 62 1014.8
20260902062006 15 263 4.8 14.5 0.00 0.13 0.00 61 1014.8
20260902061451 15 263 3.2 11.3 0.00 0.15 0.00 61 1014.8
20260902055832 15 263 3.2 12.9 0.00 0.28 0.00 60 1014.9
20260902055314 15 263 4.8 12.9 0.00 0.28 0.00 61 1014.9
20260902054755 15 263 4.8 12.9 0.00 0.28 0.00 61 1014.9
20260902054305 15 263 4.8 11.3 0.00 0.28 0.00 62 1014.9
20260902053813 15 263 4.8 11.3 0.00 0.28 0.00 61 1014.9
20260902053318 15 263 3.2 9.7 0.00 0.28 0.00 61 1014.9
20260902052816 15 263 4.8 16.1 0.00 0.28 0.00 60 1014.9
20260902052309 15 263 4.8 16.1 0.00 0.28 0.00 60 1014.9
20260902051812 15 263 6.4 16.1 0.00 0.28 0.00 60 1014.9
20260902051304 15 263 6.4 16.1 0.00 0.28 0.00 60 1014.9
20260902050758 15 263 4.8 14.5 0.00 0.28 0.00 59 1014.9
20260902050237 15 263 4.8 9.7 0.00 0.28 0.00 59 1014.9
20260902045731 15 263 4.8 16.1 0.00 0.28 0.00 61 1015.0
20260902045240 15 263 4.8 16.1 0.00 0.28 0.00 62 1015.0
20260902044056 15 263 4.8 22.5 0.00 0.28 0.00 62 1015.2
20260902043550 15 263 8.0 22.5 0.00 0.28 0.00 61 1015.2
20260902043036 15 263 6.4 22.5 0.00 0.28 0.00 61 1015.2
20260902041913 15 263 6.4 16.1 0.00 0.28 0.00 61 1015.4
20260902041412 15 263 6.4 14.5 0.00 0.28 0.00 62 1015.4
20260902040903 15 263 6.4 20.9 0.00 0.28 0.00 61 1015.5
20260902040344 16 263 8.0 20.9 0.00 0.28 0.00 62 1015.5
20260902035854 15 263 6.4 20.9 0.00 0.28 0.00 62 1015.5
20260902035401 15 263 4.8 20.9 0.00 0.28 0.00 63 1015.5
20260902034906 15 263 3.2 12.9 0.00 0.28 0.00 63 1015.5
20260902034356 15 263 4.8 17.7 0.00 0.28 0.00 63 1015.8
20260902033851 15 263 6.4 17.7 0.00 0.28 0.00 65 1015.8
20260902033400 15 263 6.4 17.7 0.00 0.28 0.00 66 1015.8
20260902032900 14 263 6.4 17.7 0.00 0.28 0.00 65 1015.9
20260902032349 14 263 6.4 16.1 0.00 0.28 0.00 65 1015.9
20260902031227 14 263 6.4 16.1 0.00 0.28 0.00 66 1016.0
20260902030732 14 263 8.0 16.1 0.00 0.28 0.00 66 1016.0
20260902030228 14 263 6.4 16.1 0.00 0.28 0.00 66 1016.0
20260902025721 14 263 4.8 17.7 0.00 0.28 0.00 66 1016.2
20260902025228 14 263 6.4 17.7 0.00 0.28 0.00 66 1016.2
20260902024731 14 263 6.4 27.4 0.00 0.28 0.00 66 1016.2
20260902024223 14 263 4.8 27.4 0.00 0.28 0.00 68 1016.4
20260902023723 13 263 8.0 27.4 0.00 0.28 0.00 69 1016.4
20260902022552 14 263 9.7 19.3 0.00 0.28 0.00 70 1016.5
20260902022057 14 263 11.3 19.3 0.00 0.28 0.00 71 1016.5
20260902020942 14 263 8.0 20.9 0.00 0.28 0.00 74 1016.6
20260902020442 14 263 8.0 20.9 0.00 0.28 0.00 75 1016.6
20260902015936 14 263 9.7 20.9 0.00 0.28 0.00 74 1016.6
20260902015445 14 263 8.0 17.7 0.00 0.28 0.00 73 1016.8
20260902014934 15 263 6.4 17.7 0.00 0.28 0.00 71 1016.8
20260902013740 14 263 6.4 16.1 0.00 0.28 0.00 66 1016.9
20260902012636 14 263 4.8 12.9 0.00 0.28 0.00 67 1017.0
20260902012123 14 263 4.8 16.1 0.00 0.28 0.00 68 1017.0
20260902011624 14 263 6.4 16.1 0.00 0.28 0.00 70 1017.0
20260902011106 14 263 6.4 19.3 0.00 0.28 0.00 70 1017.0
20260902010608 14 263 6.4 19.3 0.00 0.28 0.00 70 1017.0
20260902010057 14 263 8.0 19.3 0.00 0.28 0.00 70 1017.0
20260902005544 14 263 6.4 16.1 0.00 0.28 0.00 72 1017.3
20260902005035 14 263 6.4 16.1 0.00 0.28 0.00 73 1017.3
20260902004537 13 263 6.4 14.5 0.00 0.28 0.00 73 1017.3
20260902004038 14 263 6.4 14.5 0.00 0.28 0.00 73 1017.5
20260902003530 14 263 6.4 14.5 0.00 0.28 0.00 72 1017.5
20260902003038 13 263 6.4 14.5 0.00 0.28 0.00 72 1017.5
20260902002526 13 263 4.8 17.7 0.00 0.28 0.00 73 1017.5
20260902002026 13 263 4.8 17.7 0.00 0.28 0.00 73 1017.5
20260902001535 13 263 6.4 17.7 0.00 0.28 0.00 75 1017.5
20260902001041 13 263 6.4 17.7 0.00 0.28 0.00 76 1017.5
20260901235922 13 263 6.4 16.1 0.00 0.28 0.00 78 1017.5
20260901235413 13 263 6.4 16.1 0.00 0.28 0.00 78 1017.5
20260901234912 13 263 4.8 16.1 0.00 0.28 0.00 79 1017.5
20260901234410 13 263 4.8 14.5 0.00 0.28 0.00 80 1017.5
20260901233909 13 263 6.4 14.5 0.00 0.28 0.00 81 1017.5
20260901233405 13 263 4.8 12.9 0.00 0.28 0.00 81 1017.5
20260901232902 13 263 3.2 9.7 0.00 0.28 0.00 83 1017.5
20260901232353 13 263 3.2 9.7 0.00 0.28 0.00 83 1017.5
20260901231840 13 263 4.8 12.9 0.00 0.28 0.00 84 1017.5
20260901231328 13 263 3.2 12.9 0.00 0.28 0.00 85 1017.6
20260901230819 13 263 4.8 12.9 0.00 0.28 0.00 85 1017.6
20260901230315 13 263 3.2 12.9 0.00 0.28 0.00 86 1017.6
20260901225814 13 263 3.2 9.7 0.00 0.28 0.00 86 1017.6
20260901225308 13 263 3.2 12.9 0.00 0.28 0.00 87 1017.6
20260901224812 13 263 3.2 12.9 0.00 0.28 0.00 87 1017.6
20260901224254 13 263 4.8 12.9 0.00 0.28 0.00 87 1017.5
20260901223801 13 263 4.8 12.9 0.00 0.28 0.00 88 1017.5
20260901223305 13 263 3.2 9.7 0.00 0.28 0.00 88 1017.5
20260901222752 12 263 1.6 8.0 0.00 0.28 0.00 89 1017.4
20260901222248 12 263 0.0 4.8 0.00 0.28 0.00 89 1017.4
20260901220518 12 263 0.0 0.0 0.00 0.28 0.00 89 1017.2
20260901220009 12 263 0.0 1.6 0.00 0.28 0.00 90 1017.2
20260901215519 12 263 0.0 4.8 0.00 0.28 0.00 90 1017.0
20260901215006 12 263 0.0 6.4 0.00 0.28 0.00 90 1017.0
20260901214455 12 263 0.0 6.4 0.00 0.28 0.00 90 1017.0
20260901213954 12 263 0.0 14.5 0.00 0.28 0.00 90 1017.0
20260901213438 12 263 3.2 14.5 0.00 0.28 0.00 90 1017.0
20260901212923 12 263 4.8 14.5 0.00 0.28 0.00 90 1017.0
20260901212421 12 263 3.2 14.5 0.00 0.28 0.00 91 1016.9
20260901211308 12 263 0.0 6.4 0.00 0.28 0.00 91 1016.7
20260901210805 11 263 0.0 0.0 0.00 0.28 0.00 91 1016.7
20260901210245 11 263 0.0 6.4 0.00 0.28 0.00 91 1016.7
20260901205122 12 263 0.0 0.0 0.00 0.28 0.00 91 1016.5
20260901204609 12 263 0.0 0.0 0.00 0.28 0.00 91 1016.5
20260901204053 12 263 0.0 0.0 0.00 0.28 0.00 91 1016.4
20260901203547 12 263 0.0 0.0 0.00 0.28 0.00 91 1016.4
20260901203028 12 263 0.0 4.8 0.00 0.28 0.00 91 1016.4
20260901202510 12 263 1.6 4.8 0.00 0.28 0.00 91 1016.4
20260901202006 12 263 1.6 4.8 0.00 0.28 0.00 91 1016.4
20260901200900 12 263 0.0 0.0 0.00 0.28 0.00 91 1016.4
20260901200354 12 263 0.0 0.0 0.00 0.28 0.00 91 1016.4
20260901195858 12 263 0.0 0.0 0.00 0.28 0.00 91 1016.5
20260901195400 12 263 0.0 0.0 0.00 0.28 0.00 91 1016.5
20260901194858 12 263 0.0 0.0 0.00 0.28 0.00 91 1016.5
20260901194348 12 263 0.0 0.0 0.00 0.28 0.00 91 1016.5
20260901193838 12 263 0.0 0.0 0.00 0.28 0.00 91 1016.5
20260901193320 12 263 0.0 0.0 0.00 0.28 0.00 91 1016.5
20260901192130 12 263 0.0 0.0 0.00 0.28 0.00 91 1016.4
20260901191616 12 263 0.0 3.2 0.00 0.28 0.00 91 1016.4
20260901190447 12 263 0.0 0.0 0.00 0.28 0.00 91 1016.3
20260901185942 12 263 0.0 0.0 0.00 0.28 0.00 91 1016.3
20260901185438 12 263 0.0 0.0 0.00 0.28 0.00 91 1016.4
20260901184935 12 263 0.0 3.2 0.00 0.28 0.00 91 1016.4
20260901184416 12 263 0.0 0.0 0.00 0.28 0.00 91 1016.4
20260901183305 12 263 0.0 0.0 0.00 0.28 0.00 91 1016.2
20260901182137 12 263 0.0 0.0 0.00 0.28 0.00 91 1016.1
20260901181618 12 263 0.0 0.0 0.00 0.28 0.00 91 1016.1
20260901181107 12 263 0.0 0.0 0.00 0.28 0.00 91 1016.0
20260901175334 11 263 0.0 0.0 0.00 0.28 0.00 91 1016.0
20260901174820 11 263 0.0 0.0 0.00 0.28 0.00 91 1016.0
20260901174313 11 263 0.0 0.0 0.00 0.28 0.00 90 1016.1
20260901173816 11 263 0.0 0.0 0.00 0.28 0.00 90 1016.1
20260901172649 11 263 0.0 0.0 0.00 0.28 0.00 90 1016.3
20260901172157 11 263 0.0 0.0 0.00 0.28 0.00 90 1016.3
20260901171640 12 263 0.0 0.0 0.00 0.28 0.00 90 1016.3
20260901170506 12 263 0.0 0.0 0.00 0.28 0.00 90 1016.4
20260901165947 12 263 0.0 0.0 0.00 0.28 0.00 90 1016.4
20260901165439 12 263 0.0 0.0 0.00 0.28 0.00 90 1016.4
20260901164946 12 263 0.0 0.0 0.00 0.28 0.00 90 1016.4
20260901164432 12 263 0.0 0.0 0.00 0.28 0.00 90 1016.4
20260901163938 12 263 0.0 0.0 0.00 0.28 0.00 90 1016.6